EHI
0 0 0 0 0 0 0 0 0 0 0 0 0 0 0 0 0 0 0 0 1 2 3 3 4 4 4 3 3 3 3 3 3 3 2 1 0 0 0 0 0 0 0 0
0 0 0 0 0 0 0 0 0 0 0 0 0 0 0 0 0 0 0 0 1 2 2 2 2 3 4 3 3 3 3 3 3 3 3 2 1 0 0 0 0 0 0 0
0 0 0 0 0 0 0 0 0 0 0 0 0 0 0 0 0 0 0 0 0 1 1 1 1 3 4 4 3 3 3 3 3 3 4 3 2 1 1 0 0 0 0 0
0 0 0 0 0 0 0 0 0 0 0 0 0 0 0 0 0 0 0 0 1 1 1 1 1 3 4 5 4 3 3 3 3 3 4 5 4 3 2 1 0 0 0 0
0 0 0 0 0 0 0 0 0 0 0 0 0 0 0 0 0 0 0 0 1 2 2 2 3 3 4 5 5 4 3 3 3 3 4 5 5 5 4 3 1 1 0 0
0 0 0 0 0 0 0 0 0 0 0 0 0 0 0 0 0 0 0 0 1 3 3 3 2 2 2 4 5 4 3 3 3 3 3 4 5 6 6 4 3 2 1 0
0 0 0 0 0 0 0 0 0 0 0 0 0 0 0 0 0 0 0 0 1 2 2 2 1 1 1 2 3 3 3 4 4 3 3 3 4 5 5 4 3 2 1 0
0 0 0 0 0 0 0 0 0 0 0 0 0 0 0 0 0 0 0 0 0 1 1 1 1 1 1 2 3 3 4 5 5 4 3 3 3 4 4 3 2 1 0 0
0 0 0 0 0 0 0 0 0 0 0 0 0 0 0 0 0 0 0 0 0 0 0 0 1 1 1 3 4 3 3 4 4 3 3 3 3 3 3 2 1 0 0 0
0 0 0 0 0 0 0 0 0 0 0 0 0 0 0 0 0 0 0 0 0 0 0 0 0 0 1 3 3 2 1 2 2 2 2 1 1 2 2 1 0 0 0 0
0 0 0 0 0 0 0 0 0 0 0 0 0 0 0 0 0 0 0 0 0 0 1 0 0 0 0 1 1 1 0 0 1 2 1 0 0 1 1 0 0 0 0 0
0 0 0 0 0 0 0 0 0 0 0 0 0 0 0 0 0 0 0 0 0 1 2 1 0 0 0 0 0 0 0 1 2 3 2 1 1 1 0 0 0 0 0 0
0 0 0 0 0 0 0 0 0 0 0 0 0 0 0 0 0 0 0 0 0 0 1 0 0 0 0 0 0 0 0 1 3 5 4 2 2 2 1 0 0 0 0 0
0 0 0 0 0 0 0 0 0 0 0 0 0 0 0 0 0 0 0 0 0 0 0 0 0 0 1 0 0 0 1 2 4 5 5 3 2 2 2 1 0 0 0 0
0 0 0 0 0 0 0 0 0 0 0 0 0 0 0 0 0 0 0 0 0 0 0 0 0 0 0 0 0 0 1 2 4 5 5 3 1 1 1 1 0 0 0 0
0 0 0 0 0 0 0 0 0 0 0 0 0 0 0 0 0 0 0 0 0 0 0 0 0 0 0 0 0 0 1 2 3 3 3 1 0 0 0 0 0 0 0 0
0 0 0 0 0 0 0 0 0 0 0 0 0 0 0 0 0 0 0 0 0 0 0 0 0 0 0 0 0 0 0 1 1 1 1 0 0 0 0 0 0 1 1 1
0 0 0 0 0 0 0 0 0 0 0 0 0 0 0 0 0 0 0 0 0 0 0 0 0 0 0 0 0 0 0 0 0 0 0 0 0 0 0 0 0 1 1 0
0 0 0 0 0 0 0 0 0 0 0 0 0 0 0 0 0 0 0 0 0 0 0 0 0 0 0 0 0 0 0 0 0 0 0 0 0 0 0 0 0 0 0 0
0 0 0 0 0 0 0 0 0 0 0 0 0 0 0 0 0 0 0 0 0 0 0 0 0 0 0 0 0 0 0 0 0 0 0 0 0 0 0 0 0 0 0 0
0 0 0 0 0 0 0 0 0 0 0 0 0 0 0 0 0 0 0 0 0 0 0 0 0 0 0 0 0 0 0 0 0 0 0 0 0 0 0 0 0 0 0 0
0 0 0 0 0 0 0 0 0 0 0 0 0 0 0 0 0 0 0 0 0 0 0 0 0 0 0 0 0 0 0 0 0 0 0 0 0 0 0 0 0 0 0 0
0 0 0 0 0 0 0 0 0 0 0 0 0 0 0 0 0 0 0 0 0 0 0 0 0 0 0 0 0 0 0 0 0 0 0 0 0 0 0 0 0 0 0 0
0 0 0 0 0 0 0 0 0 0 0 0 0 0 0 0 0 0 0 0 0 0 0 0 0 0 0 0 0 0 0 0 0 0 0 0 0 0 0 0 0 0 0 0
0 0 0 0 0 0 0 0 0 0 0 0 0 0 0 0 0 0 0 0 0 0 0 0 0 0 0 0 0 0 0 0 0 0 0 0 0 0 0 0 0 0 0 0
0 0 0 0 0 0 0 0 0 0 0 0 0 0 0 0 0 0 0 0 0 0 0 0 0 0 0 0 0 0 0 0 0 0 0 0 0 0 0 0 0 0 0 0
0 0 0 0 0 0 0 0 0 0 0 0 0 0 0 0 0 0 0 0 0 0 0 0 0 0 0 0 0 0 0 0 0 0 0 0 0 0 0 0 0 0 0 0
Wind_Speed
8 7 8 8 8 8 8 8 7 5 3 2 3 4 4 5 5 5 5 5 5 4 4 4 4 4 3 3 3 4 4 3 2 2 3 3 2 2 1 1 2 2 2 2
9 9 9 9 9 10 9 9 7 5 4 1 1 3 3 3 5 4 4 4 5 5 4 4 4 4 4 3 3 3 4 3 2 2 3 3 3 2 2 1 2 2 2 3
9 9 8 9 9 9 8 7 7 6 3 2 2 2 2 3 4 4 3 3 4 4 4 4 4 4 4 4 3 3 3 3 3 3 3 3 3 3 2 2 2 2 2 2
7 8 10 4 1 1 3 3 2 1 1 2 1 1 2 3 3 3 2 2 2 2 3 4 4 3 3 4 3 3 3 3 3 3 3 3 3 3 2 2 2 1 1 2
6 8 7 5 3 3 3 3 1 2 1 2 2 2 2 3 3 2 2 2 2 2 2 2 3 3 4 4 3 3 3 3 3 3 3 3 3 3 2 2 2 1 1 2
7 8 6 2 1 1 3 3 1 1 1 2 2 2 1 2 2 2 2 2 2 1 2 2 2 3 4 3 3 3 3 3 3 3 3 3 3 2 2 2 2 2 1 2
10 8 5 0 0 0 3 1 2 2 1 1 1 0 1 2 1 2 2 2 2 2 2 2 2 2 2 3 2 2 3 2 3 2 3 3 3 2 2 2 1 1 1 2
7 8 5 1 0 1 2 2 2 2 2 2 1 2 1 1 1 1 1 3 3 3 2 2 3 3 2 2 2 2 3 2 2 2 2 2 3 2 2 2 2 1 1 1
3 2 2 2 3 3 3 2 2 2 2 1 1 1 1 0 0 1 2 3 3 3 3 3 3 3 3 2 2 3 3 2 2 2 1 2 3 2 2 2 1 1 1 1
5 2 2 3 4 4 3 3 2 2 1 1 1 1 1 1 1 1 1 2 3 3 3 3 3 3 3 3 3 3 3 3 3 3 2 1 2 2 2 2 2 2 1 1
6 4 3 3 4 4 4 4 3 2 2 2 1 1 1 2 1 1 1 1 3 4 4 3 3 3 3 3 3 3 3 3 2 2 2 2 1 1 1 1 2 2 2 2
6 6 5 5 5 5 5 6 5 3 3 2 2 2 2 2 2 2 2 2 2 3 3 4 3 3 3 3 4 4 3 3 2 2 2 2 2 1 2 0 1 2 2 2
8 8 6 5 6 6 6 6 6 5 4 3 2 2 3 3 2 2 2 2 2 2 2 3 3 3 3 3 3 4 3 3 2 2 2 2 2 2 1 1 1 0 1 2
7 7 7 6 6 6 6 5 5 5 3 3 2 2 2 2 2 2 2 2 2 2 2 2 2 2 2 2 3 3 3 3 3 2 2 2 2 2 2 2 1 1 1 2
7 8 7 6 6 6 5 4 4 4 3 3 2 2 2 2 2 2 2 2 2 2 2 2 2 2 2 2 3 3 3 2 2 2 2 2 2 2 2 2 2 2 1 1
8 7 6 6 6 6 5 4 4 4 4 3 2 3 3 2 2 2 1 1 2 2 2 3 2 2 2 2 2 2 2 4 3 2 2 2 2 1 1 1 2 2 2 2
7 7 6 6 6 6 5 4 4 4 4 3 1 1 1 1 1 1 1 2 2 1 1 2 2 2 2 2 2 2 2 3 4 3 2 2 2 2 2 1 2 2 2 3
7 7 6 6 5 5 5 5 4 3 3 2 2 1 1 2 2 2 2 1 1 1 1 1 1 1 2 2 2 2 2 2 2 2 2 2 2 2 2 2 2 2 1 2
6 6 5 5 5 5 5 4 3 3 2 2 2 2 2 2 2 2 2 2 2 2 1 0 1 2 2 2 2 2 2 2 2 2 2 2 2 2 2 2 2 2 2 1
4 4 4 4 4 4 3 2 2 2 2 2 2 2 2 2 2 2 2 2 2 1 1 1 1 2 2 2 2 2 2 2 2 2 1 2 2 2 2 2 2 2 2 2
3 2 2 3 3 2 2 2 2 2 2 2 2 2 1 1 1 1 2 2 1 0 1 2 2 1 2 2 2 2 2 2 2 1 1 2 2 2 2 2 2 2 2 2
2 2 2 2 2 2 2 1 1 2 1 1 2 1 1 1 1 1 1 1 1 1 1 1 1 1 1 2 2 2 2 2 2 2 2 2 2 2 2 2 2 2 1 1
2 2 1 2 2 2 2 1 1 1 1 1 1 1 1 1 1 1 1 1 1 2 2 1 1 2 2 2 2 2 2 2 2 2 2 2 2 2 2 2 1 1 1 1
2 2 2 2 2 2 2 2 2 1 1 1 1 1 1 1 1 1 0 0 0 1 1 2 3 2 2 2 1 1 2 2 1 2 2 2 2 2 1 1 1 1 1 2
2 2 2 2 2 2 2 2 2 1 1 1 1 1 1 1 1 1 0 0 1 1 1 2 4 4 3 2 2 2 2 2 2 2 2 2 2 2 2 2 2 2 2 2
2 2 2 2 2 1 2 1 1 1 1 1 1 1 1 1 1 1 1 1 1 1 1 1 1 2 2 2 2 2 2 2 2 2 2 2 2 2 2 2 3 2 2 2
1 1 1 1 1 1 1 1 1 1 1 2 2 1 2 2 1 1 1 1 1 1 1 1 1 2 2 2 2 2 2 2 2 2 2 2 2 2 2 3 3 2 2 2
Wind_Direction
273 279 276 268 265 257 251 257 265 265 261 205 165 144 136 136 133 135 138 140 141 145 145 152 156 155 153 148 149 152 149 156 166 157 142 137 139 142 133 140 142 135 125 118
271 269 270 269 264 257 254 260 258 263 277 281 128 122 123 126 130 132 142 147 143 147 145 151 155 156 153 154 157 157 157 154 151 144 139 141 142 127 109 92 92 83 98 109
272 266 268 261 253 243 239 245 249 247 246 116 108 123 132 130 128 135 135 145 152 160 157 156 157 158 156 160 156 151 153 143 139 132 131 136 130 115 114 110 96 87 93 103
272 269 252 250 316 247 248 253 262 231 161 149 135 147 125 120 124 124 118 113 131 152 154 156 153 148 148 149 151 154 150 145 136 138 136 135 130 129 138 119 117 127 132 129
260 259 262 253 243 237 238 249 248 222 195 118 117 138 126 97 105 120 136 141 141 143 137 133 136 140 137 137 140 138 135 138 142 144 143 144 146 148 147 137 138 156 149 132
258 260 262 264 152 250 238 237 228 163 132 105 132 184 163 106 110 120 115 126 132 136 127 132 129 133 144 144 140 144 146 151 145 143 146 152 156 156 148 141 155 156 166 173
251 258 263 318 19 333 240 233 89 88 103 142 186 39 91 95 89 120 132 138 131 136 134 150 142 129 143 147 158 155 145 146 139 135 144 151 151 147 145 152 155 160 179 188
243 247 248 69 326 258 3 37 53 63 57 32 44 37 74 87 82 118 143 149 146 144 151 154 144 143 156 158 155 130 126 132 138 140 157 152 145 152 161 160 157 174 190 201
267 265 2 5 2 3 12 2 11 22 38 18 15 6 34 30 293 197 178 166 156 158 160 159 157 160 168 159 142 137 140 150 154 151 157 150 148 156 159 147 158 193 198 185
273 247 286 324 346 350 345 344 346 337 334 324 325 326 320 266 277 262 189 181 164 161 165 175 177 170 165 152 150 155 162 162 159 151 144 138 137 153 162 174 186 195 189 194
278 278 294 303 319 321 325 322 308 301 292 287 279 272 278 269 272 264 251 214 183 178 178 186 181 184 167 156 160 175 181 167 159 154 156 151 127 130 171 192 191 184 191 194
279 284 282 278 294 305 305 299 297 286 267 250 247 253 257 254 253 248 238 221 204 189 184 190 190 191 176 167 174 186 189 170 164 158 150 152 137 88 42 103 166 164 179 191
289 302 302 297 288 287 285 286 290 287 268 250 242 248 251 251 252 242 240 224 213 205 194 200 196 189 179 182 187 193 185 174 164 163 164 169 169 165 155 23 41 257 221 195
296 301 297 298 298 296 293 291 286 286 274 254 245 251 254 259 250 239 237 220 211 197 195 205 206 199 186 193 192 191 185 181 175 173 172 180 185 184 183 188 202 254 260 205
287 289 286 293 298 298 299 302 298 287 275 250 228 227 227 239 241 238 233 223 209 197 200 203 209 204 193 201 202 195 186 177 172 171 172 178 177 181 195 200 194 189 182 213
283 286 287 287 289 292 292 293 295 293 286 268 232 217 220 226 231 222 209 209 208 204 201 206 208 201 196 197 203 197 190 184 169 163 175 178 170 180 195 195 191 188 193 196
276 273 277 281 287 290 291 291 290 293 295 296 271 207 201 213 214 211 217 221 212 193 189 194 201 192 200 193 188 189 179 173 172 175 186 186 182 193 199 194 204 216 211 200
274 273 269 277 286 293 293 291 292 300 302 305 310 240 214 222 222 222 219 210 198 216 234 205 197 201 196 184 186 179 166 170 180 186 185 184 189 191 201 203 210 226 226 205
273 276 282 286 288 288 291 293 298 297 297 297 289 259 233 239 235 220 212 205 210 224 245 230 216 204 198 177 165 160 169 180 188 194 187 188 190 192 197 209 217 214 207 209
281 284 289 301 302 294 295 303 311 313 313 294 286 272 248 245 242 224 212 213 209 210 193 195 211 197 190 169 158 160 167 184 193 192 188 188 194 201 209 216 221 219 214 213
288 293 297 300 309 312 303 299 301 302 306 300 289 282 273 274 245 234 229 231 229 192 198 203 205 195 175 166 167 170 173 187 194 194 203 214 219 222 221 216 221 227 221 214
294 292 292 297 308 309 301 294 297 299 302 307 313 319 328 324 268 240 237 231 201 181 202 204 186 163 164 175 183 185 190 195 199 197 202 216 230 239 237 232 228 232 225 213
304 301 296 293 295 298 300 302 303 304 306 297 300 306 292 285 255 227 247 255 188 182 196 183 164 166 186 196 194 190 192 198 204 205 207 215 229 238 239 240 245 243 230 223
310 312 309 307 305 299 297 306 311 317 319 303 299 313 309 303 290 264 226 99 73 154 183 169 178 189 198 208 201 193 194 202 210 217 220 228 233 233 232 235 234 235 234 236
297 296 294 297 295 297 300 306 313 322 314 318 316 311 301 291 275 275 252 204 161 163 200 192 200 207 207 210 204 205 207 214 220 221 218 229 234 229 226 226 232 234 227 230
272 277 283 288 298 306 301 297 300 307 311 309 306 316 315 305 290 290 286 252 182 206 230 204 202 199 203 211 211 214 220 229 232 229 230 235 237 234 235 237 243 241 238 237
272 265 265 273 287 289 287 287 288 295 300 301 303 321 319 313 303 285 268 256 219 204 206 200 212 214 212 213 215 219 227 229 225 223 228 233 234 232 234 239 241 243 242 242